Flag for Canada Weather past 2 weeks in Bathurst, New Brunswick, Canada

Now
75 °F

Partly sunny.


Feels Like: 78 °F
Forecast: 56 / 70 °F
Wind: 9 mph from Southwest

Location: Bathurst Airport

Current Time: May 25, 2015 at 9:31:01 PM

Latest Report: May 25, 2015 at 8:00 PM


Visibility: 15 mi

Pressure: 29.96 "Hg

Humidity: 41%

Dew point: 50 °F

Location of BathurstLocation

Historic Weather in Bathurst — Graph

°F

Bathurst temperature yesterday

Maximum temperature yesterday: 70 °F (at 5:00 PM)
Minimum temperature yesterday: 37 °F (at 3:00 AM)
Average temperature yesterday: 54 °F

Past Weeks' High & Low Weather Summary

 TemperatureHumidityPressure
High81 °F (May 25, 5:00 PM)100% (May 12, 5:00 AM)30.34 "Hg (May 12, 5:00 AM)
Low36 °F (May 22, 2:00 AM)12% (May 24, 6:00 PM)29.38 "Hg (May 20, 12:00 PM)
Average52 °F63%29.93 "Hg
* Reported May 10 8:00 PM — May 25 8:00 PM, Bathurst, Weather by CustomWeather, © 2015

Note: Actual official high and low records may vary slightly from our data, if they occured in-between our weather recording intervals... More about our weather records

Advertising

Bathurst weather history for previous 24 hours

 ConditionsComfort  
Time TempWeatherWind HumidityBarometerVisibility
8:00 PM
Mon, May 25
75 °FPartly sunny.9 mph41%29.96 "Hg15 mi
7:00 PM77 °FScattered clouds.6 mph39%29.94 "Hg15 mi
6:04 PM79 °FSprinkles. Partly sunny.9 mph32%29.94 "Hg12 mi
5:00 PM81 °FPartly sunny.17 mph28%29.94 "Hg15 mi
4:00 PM79 °FBroken clouds.21 mph26%29.94 "Hg15 mi
3:00 PM77 °FPartly sunny.17 mph30%29.95 "Hg15 mi
2:00 PM77 °FPartly sunny.16 mph28%29.95 "Hg15 mi
1:50 PM77 °FPartly sunny.13 mph28%29.95 "Hg15 mi
1:00 PM75 °FScattered clouds.13 mph36%29.96 "Hg15 mi
12:00 PM75 °FScattered clouds.17 mph36%29.97 "Hg15 mi
11:00 AM72 °FPassing clouds.6 mph36%29.99 "Hg15 mi
10:00 AM63 °FBroken clouds.3 mph45%30.02 "Hg15 mi
9:00 AM52 °FBroken clouds.No wind54%30.05 "Hg15 mi
8:00 AM48 °FPartly sunny.2 mph58%30.04 "Hg15 mi
7:00 AM45 °FPartly sunny.No wind66%30.03 "Hg15 mi
6:00 AM39 °FPassing clouds.2 mph75%30.01 "Hg15 mi
5:00 AM39 °FPassing clouds.3 mph75%30.00 "Hg15 mi
4:00 AM43 °FClear.6 mph66%30.00 "Hg15 mi
3:00 AM41 °FClear.5 mph70%30.00 "Hg15 mi
2:00 AM41 °FClear.3 mph81%29.99 "Hg15 mi
1:00 AM43 °FClear.3 mph61%29.98 "Hg15 mi
12:00 AM46 °FClear.3 mph50%29.98 "Hg15 mi
11:00 PM
Sun, May 24
48 °FClear.2 mph46%29.96 "Hg15 mi
10:00 PM52 °FPassing clouds.No wind38%29.95 "Hg15 mi
9:00 PM64 °FPartly sunny.3 mph16%29.92 "Hg15 mi
Weather by CustomWeather, © 2015

See weather overviewHow to use our weather pages